Simultaneous Nadir Overpasses (SNOs) Predictions

Prediction of SNOs between GOES-17 and AQUA Satellite Orbit:

Table of predicted SNOs for the next 14.0 days since TLE Epoch: 12/17/2022
Index Date Time (GOES-17) GOES-17 Lat,Lon AQUA Lat,Lon Distance(km) Time Diff (sec)
1 12/18/2022 10:39:40 0.02,-137.33 -0.55,-134.59 311.87 80
2 12/18/2022 23:00:52 -0.02,-137.33 -0.54,-139.73 272.74 80
3 12/20/2022 22:50:33 -0.02,-137.32 0.15,-136.56 85.78 80
4 12/21/2022 11:11:36 0.02,-137.32 0.94,-141.66 494.40 80
5 12/22/2022 22:37:33 -0.02,-137.29 0.80,-133.39 443.39 80
6 12/23/2022 10:58:36 0.02,-137.29 0.29,-138.49 137.05 80
7 12/25/2022 10:42:56 0.02,-137.26 -0.39,-135.33 219.58 80
8 12/25/2022 23:04:06 -0.02,-137.25 -0.72,-140.46 365.73 80
9 12/27/2022 22:51:07 -0.00,-137.21 -0.01,-137.30 9.41 80
10 12/29/2022 22:38:06 0.00,-137.18 0.67,-134.13 347.39 80
11 12/30/2022 11:01:47 0.00,-137.17 0.46,-139.21 233.05 80
